When you browse on this site, cookies collect data to enhance your experience and personalize the content and advertising you see.
Visit our Privacy Policy to learn more. By continuing to use the site, you agree to this use of cookies and data.
  • In Spain
  • List of Countries
  • For 7 days
  • Water Temperature
  • Satellite Maps
  • Weather Map
  • Weather Widgets
  • user-avatar
    Login

    Hourly Weather Razgrad

    Today, 22 January, Tuesday

    Time Temperature Precipitation Wind Pressure Humidity
    00:00 -2°C° 0 mm 3 mps 745 mmHg 83%
    01:00 -2°C° 0 mm 3 mps 745 mmHg 83%
    02:00 -2°C° 0 mm 3 mps 745 mmHg 83%
    03:00 -2°C° 0 mm 3 mps 745 mmHg 83%
    04:00 -2°C° 0 mm 3 mps 745 mmHg 84%
    05:00 -2°C° 0 mm 3 mps 745 mmHg 84%
    06:00 -2°C° 0 mm 3 mps 744 mmHg 85%
    07:00 -2°C° 0 mm 3 mps 744 mmHg 85%
    08:00 -3°C° 0 mm 4 mps 744 mmHg 85%
    09:00 -2°C° 0 mm 4 mps 744 mmHg 83%
    10:00 -1°C° 0 mm 5 mps 744 mmHg 81%
    11:00 +1°C° 0 mm 5 mps 743 mmHg 78%
    12:00 +1°C° 0 mm 5 mps 743 mmHg 78%
    13:00 +2°C° 0 mm 5 mps 742 mmHg 77%
    14:00 +2°C° 0 mm 5 mps 741 mmHg 76%
    15:00 +2°C° 0 mm 5 mps 741 mmHg 80%
    16:00 +1°C° 0 mm 4 mps 740 mmHg 84%
    17:00 +1°C° 0 mm 4 mps 740 mmHg 88%
    18:00 +1°C° 0 mm 4 mps 739 mmHg 89%
    19:00 +1°C° 0 mm 4 mps 738 mmHg 90%
    20:00 +1°C° 0 mm 5 mps 738 mmHg 91%
    21:00 +1°C° 0 mm 5 mps 737 mmHg 90%
    22:00 +1°C° 0 mm 4 mps 737 mmHg 90%
    23:00 +3°C° 0 mm 4 mps 737 mmHg 90%

    Tomorrow, 23 January, Wednesday

    Time Temperature Precipitation Wind Pressure Humidity
    00:00 +3°C° 0 mm 4 mps 736 mmHg 90%
    01:00 +2°C° 0 mm 5 mps 735 mmHg 90%
    02:00 +2°C° 0 mm 5 mps 735 mmHg 90%
    03:00 +3°C° 0.1 mm 5 mps 734 mmHg 90%
    04:00 +3°C° 0.1 mm 5 mps 733 mmHg 89%
    05:00 +3°C° 0.1 mm 5 mps 733 mmHg 89%
    06:00 +4°C° 0.1 mm 4 mps 732 mmHg 89%
    07:00 +4°C° 0.1 mm 3 mps 732 mmHg 90%
    08:00 +4°C° 0.1 mm 3 mps 732 mmHg 90%
    09:00 +6°C° 0 mm 2 mps 732 mmHg 87%
    10:00 +7°C° 0 mm 2 mps 732 mmHg 84%
    11:00 +8°C° 0 mm 2 mps 733 mmHg 81%
    12:00 +10°C° 0 mm 1 mps 732 mmHg 79%
    13:00 +10°C° 0 mm 1 mps 732 mmHg 76%
    14:00 +11°C° 0 mm 1 mps 732 mmHg 73%
    15:00 +10°C° 0 mm 1 mps 731 mmHg 76%
    16:00 +10°C° 0 mm 1 mps 731 mmHg 79%
    17:00 +9°C° 0 mm 1 mps 731 mmHg 82%
    18:00 +9°C° 0 mm 1 mps 731 mmHg 84%
    19:00 +7°C° 0 mm 2 mps 731 mmHg 86%
    20:00 +7°C° 0 mm 2 mps 731 mmHg 87%
    21:00 +7°C° 0 mm 3 mps 731 mmHg 87%
    22:00 +7°C° 0 mm 4 mps 731 mmHg 87%
    23:00 +7°C° 0 mm 5 mps 731 mmHg 87%

    Day after tomorrow, 24 January, Thursday

    Time Temperature Precipitation Wind Pressure Humidity
    00:00 +7°C° 0 mm 5 mps 731 mmHg 87%
    01:00 +7°C° 0 mm 5 mps 730 mmHg 88%
    02:00 +7°C° 0 mm 4 mps 730 mmHg 88%
    03:00 +7°C° 0.1 mm 5 mps 730 mmHg 89%
    04:00 +7°C° 0.1 mm 5 mps 729 mmHg 89%
    05:00 +7°C° 0.1 mm 5 mps 729 mmHg 90%
    06:00 +7°C° 0.4 mm 5 mps 729 mmHg 90%
    07:00 +7°C° 0.4 mm 5 mps 729 mmHg 90%
    08:00 +6°C° 0.4 mm 4 mps 728 mmHg 91%
    09:00 +7°C° 0.2 mm 5 mps 728 mmHg 87%
    10:00 +7°C° 0.2 mm 5 mps 729 mmHg 83%
    11:00 +8°C° 0.2 mm 5 mps 729 mmHg 79%
    12:00 +7°C° 0.9 mm 5 mps 728 mmHg 82%
    13:00 +7°C° 0.9 mm 5 mps 728 mmHg 84%
    14:00 +7°C° 0.9 mm 4 mps 727 mmHg 86%
    15:00 +7°C° 0.1 mm 4 mps 727 mmHg 87%
    16:00 +7°C° 0.1 mm 4 mps 727 mmHg 88%
    17:00 +8°C° 0.1 mm 3 mps 727 mmHg 89%
    18:00 +7°C° 0 mm 3 mps 727 mmHg 91%
    19:00 +7°C° 0 mm 3 mps 727 mmHg 93%
    20:00 +5°C° 0 mm 3 mps 727 mmHg 96%
    21:00 +5°C° 0 mm 3 mps 727 mmHg 95%
    22:00 +5°C° 0 mm 4 mps 728 mmHg 95%
    23:00 +5°C° 0 mm 4 mps 728 mmHg 95%

    25 January, Friday

    Time Temperature Precipitation Wind Pressure Humidity
    00:00 +5°C° 0.1 mm 3 mps 728 mmHg 95%
    01:00 +5°C° 0.1 mm 3 mps 728 mmHg 95%
    02:00 +5°C° 0.1 mm 3 mps 728 mmHg 95%
    03:00 +6°C° 0.5 mm 2 mps 727 mmHg 95%
    04:00 +6°C° 0.5 mm 2 mps 727 mmHg 96%
    05:00 +7°C° 0.5 mm 1 mps 727 mmHg 96%
    06:00 +6°C° 0 mm 1 mps 728 mmHg 96%
    07:00 +6°C° 0 mm 1 mps 728 mmHg 95%
    08:00 +6°C° 0 mm 1 mps 729 mmHg 94%
    09:00 +6°C° 0.1 mm 2 mps 729 mmHg 91%
    10:00 +8°C° 0.1 mm 3 mps 729 mmHg 87%
    11:00 +8°C° 0.1 mm 4 mps 729 mmHg 83%
    12:00 +9°C° 0.1 mm 5 mps 729 mmHg 79%
    13:00 +10°C° 0.1 mm 6 mps 728 mmHg 75%
    14:00 +10°C° 0.1 mm 7 mps 728 mmHg 71%
    15:00 +10°C° 0.1 mm 6 mps 727 mmHg 73%
    16:00 +9°C° 0.1 mm 6 mps 727 mmHg 76%
    17:00 +8°C° 0.1 mm 6 mps 727 mmHg 79%
    18:00 +8°C° 0.1 mm 7 mps 727 mmHg 81%
    19:00 +8°C° 0.1 mm 7 mps 727 mmHg 82%
    20:00 +6°C° 0.1 mm 8 mps 727 mmHg 84%
    21:00 +6°C° 0.2 mm 7 mps 726 mmHg 86%
    22:00 +7°C° 0.2 mm 6 mps 726 mmHg 87%
    23:00 +7°C° 0.2 mm 6 mps 726 mmHg 89%

    26 January, Saturday

    Time Temperature Precipitation Wind Pressure Humidity
    00:00 +7°C° 0.1 mm 5 mps 726 mmHg 91%
    01:00 +7°C° 0.1 mm 3 mps 726 mmHg 92%
    02:00 +7°C° 0.1 mm 2 mps 726 mmHg 94%
    03:00 +6°C° 0 mm 2 mps 726 mmHg 94%
    04:00 +6°C° 0 mm 2 mps 726 mmHg 94%
    05:00 +7°C° 0 mm 1 mps 726 mmHg 93%
    06:00 +6°C° 0 mm 1 mps 726 mmHg 93%
    07:00 +6°C° 0 mm 1 mps 727 mmHg 93%
    08:00 +5°C° 0 mm 0 mps 727 mmHg 94%
    09:00 +5°C° 0.3 mm 0 mps 727 mmHg 92%
    10:00 +6°C° 0.3 mm 0 mps 728 mmHg 90%
    11:00 +7°C° 0.3 mm 1 mps 728 mmHg 88%
    12:00 +7°C° 0.1 mm 1 mps 728 mmHg 87%
    13:00 +8°C° 0.1 mm 1 mps 728 mmHg 85%
    14:00 +7°C° 0.1 mm 2 mps 728 mmHg 84%
    15:00 +6°C° 0.1 mm 2 mps 728 mmHg 86%
    16:00 +5°C° 0.1 mm 2 mps 728 mmHg 88%
    17:00 +5°C° 0.1 mm 2 mps 728 mmHg 90%
    18:00 +4°C° 0.7 mm 2 mps 728 mmHg 91%
    19:00 +4°C° 0.7 mm 2 mps 728 mmHg 93%
    20:00 +4°C° 0.7 mm 2 mps 729 mmHg 94%
    21:00 +4°C° 1.8 mm 2 mps 729 mmHg 95%
    22:00 +4°C° 1.8 mm 2 mps 729 mmHg 95%
    23:00 +5°C° 1.8 mm 1 mps 729 mmHg 96%

    27 January, Sunday

    Time Temperature Precipitation Wind Pressure Humidity
    00:00 +4°C° 0.5 mm 2 mps 729 mmHg 95%
    01:00 +4°C° 0.5 mm 2 mps 730 mmHg 95%
    02:00 +4°C° 0.5 mm 2 mps 730 mmHg 95%
    03:00 +4°C° 1.4 mm 2 mps 730 mmHg 96%
    04:00 +4°C° 1.4 mm 2 mps 730 mmHg 96%
    05:00 +3°C° 1.4 mm 2 mps 730 mmHg 96%
    06:00 +3°C° 1.2 mm 2 mps 730 mmHg 96%
    07:00 +3°C° 1.2 mm 2 mps 730 mmHg 96%
    08:00 +3°C° 1.2 mm 2 mps 730 mmHg 95%
    09:00 +3°C° 0.2 mm 2 mps 731 mmHg 94%
    10:00 +3°C° 0.2 mm 2 mps 731 mmHg 93%
    11:00 +3°C° 0.2 mm 2 mps 731 mmHg 92%
    12:00 +3°C° 0.1 mm 2 mps 731 mmHg 92%
    13:00 +3°C° 0.1 mm 2 mps 731 mmHg 91%
    14:00 +3°C° 0.1 mm 2 mps 731 mmHg 91%
    15:00 +3°C° 0.1 mm 2 mps 732 mmHg 91%
    16:00 +3°C° 0.1 mm 2 mps 732 mmHg 92%
    17:00 +3°C° 0.1 mm 2 mps 733 mmHg 93%
    18:00 +3°C° 0.2 mm 2 mps 733 mmHg 93%
    19:00 +4°C° 0.2 mm 1 mps 734 mmHg 94%
    20:00 +4°C° 0.2 mm 1 mps 734 mmHg 94%
    21:00 +4°C° 0.1 mm 1 mps 735 mmHg 94%
    22:00 +4°C° 0.1 mm 1 mps 735 mmHg 94%
    23:00 +4°C° 0.1 mm 1 mps 736 mmHg 94%
    Show more